Вернуться в каталог

SL-12 R/B(2)

АктивенGEO
NORAD 23171·ROCKET BODY·🇷🇺 Russia

Запущен Jul 6, 1994 с Baikonur Cosmodrome

Loading…

TLE

СвежийSource: Space-Track

Эпоха: Sep 14, 2026, 22:24 UTC

1 23171U 94038D   26257.93370079 -.00000097  00000-0  00000-0 0  9995
2 23171  14.2033 353.2975 0023434 154.0128 193.6600  0.99432012116902

Отслеживайте SL-12 R/B(2) в реальном времени с AllMySat

Download on the App Store